Latest Weather Observations for Yulara

IDD60801

Issued at 7:05 am CST Sunday 26 October 2014 (issued every 30 minutes, with the page automatically refreshed every 10 minutes)

About weather observations | Map of weather stations | Latest weather observations for NT | Other Formats
Station Details ID: 015635 Name: YULARA AIRPORT Lat: -25.19 Lon: 130.97 Height: 492.0 m
Data from the previous 72 hours. | See also: Recent months at Yulara
Date/Time
CST
Temp
°C
App
Temp
°C
Dew
Point
Rel
Hum
%
Delta-T
°C
Wind Press
QNH
hPa
Press
MSL
hPa
Rain
since 9 am
mm
Dir
 
Spd
km/h
Gust
km/h
Spd
kts
Gust
kts
26/07:00am 27.9 24.4 1.4 18 13.1 N 9 13 5 7 1015.7 1013.2 0.0
26/06:30am 26.9 23.3 0.6 18 12.7 N 9 11 5 6 1015.0 1012.4 0.0
26/06:00am 28.1 23.4 0.8 17 13.4 N 15 19 8 10 1014.3 1011.8 0.0
26/05:30am 27.9 22.9 1.4 18 13.1 NNE 17 24 9 13 1014.2 1011.7 0.0
26/05:00am 26.3 21.8 2.3 21 11.9 NNE 15 20 8 11 1014.0 1011.5 0.0
26/04:30am 24.8 21.8 2.3 23 11.1 N 7 7 4 4 1013.9 1011.4 0.0
26/04:00am 27.3 25.6 1.7 19 12.7 CALM 0 6 0 3 1013.7 1011.2 0.0
26/03:30am 28.4 24.4 2.6 19 13.1 N 13 17 7 9 1013.8 1011.3 0.0
26/03:00am 27.3 25.6 1.7 19 12.7 CALM 0 0 0 0 1013.6 1011.1 0.0
26/02:30am 28.1 26.5 2.3 19 13.0 CALM 0 7 0 4 1013.9 1011.4 0.0
26/02:00am 27.1 24.1 2.2 20 12.4 W 7 9 4 5 1014.2 1011.7 0.0
26/01:30am 27.1 25.6 2.9 21 12.2 CALM 0 0 0 0 1014.3 1011.8 0.0
26/01:00am 26.2 24.6 2.2 21 11.9 CALM 0 0 0 0 1014.7 1012.1 0.0
26/12:30am 28.2 25.6 3.1 20 12.8 SE 6 9 3 5 1014.9 1012.3 0.0
26/12:00am 27.3 25.6 1.7 19 12.7 NNW 0 0 0 0 1015.0 1012.4 0.0
 
Date/Time
CST
Temp
°C
App
Temp
°C
Dew
Point
Rel
Hum
%
Delta-T
°C
Wind Press
QNH
hPa
Press
MSL
hPa
Rain
since 9 am
mm
Dir
 
Spd
km/h
Gust
km/h
Spd
kts
Gust
kts
25/11:30pm 28.5 25.7 1.9 18 13.3 SW 6 11 3 6 1015.2 1012.7 0.0
25/11:00pm 28.9 26.0 1.4 17 13.7 SSW 6 7 3 4 1015.4 1012.9 0.0
25/10:30pm 27.5 24.9 1.1 18 12.9 WSW 4 20 2 11 1015.7 1013.2 0.0
25/10:00pm 28.1 26.2 0.8 17 13.4 CALM 0 0 0 0 1015.5 1013.0 0.0
25/09:30pm 29.9 26.3 0.5 15 14.5 NE 9 13 5 7 1015.5 1013.0 0.0
25/09:00pm 30.8 27.3 1.2 15 14.8 NW 9 13 5 7 1015.4 1012.9 0.0
25/08:30pm 28.9 27.0 0.6 16 13.9 CALM 0 0 0 0 1015.1 1012.6 0.0
25/08:00pm 31.1 29.2 0.5 14 15.2 CALM 0 0 0 0 1014.8 1012.2 0.0
25/07:30pm 33.0 29.8 -0.2 12 16.5 N 6 7 3 4 1014.3 1011.8 0.0
25/07:00pm 35.5 32.3 -0.8 10 18.1 NNW 6 9 3 5 1014.1 1011.6 0.0
25/06:30pm 37.4 33.2 -0.8 9 19.3 N 11 15 6 8 1013.8 1011.3 0.0
25/06:00pm 38.1 32.8 -0.3 9 19.7 NNW 17 24 9 13 1013.6 1011.1 0.0
25/05:30pm 39.7 35.5 -0.7 8 20.8 NNE 11 28 6 15 1013.2 1010.7 0.0
25/05:00pm 38.6 35.5 0.1 9 19.9 NNE 6 11 3 6 1013.4 1010.9 0.0
25/04:30pm 38.3 34.2 -0.1 9 19.7 NW 11 20 6 11 1013.5 1011.0 0.0
25/04:00pm 38.8 35.7 0.3 9 20.0 NW 6 17 3 9 1013.6 1011.1 0.0
25/03:30pm 38.5 35.4 0.0 9 19.8 WSW 6 15 3 8 1013.8 1011.3 0.0
25/03:00pm 38.6 33.8 0.1 9 19.9 NNW 15 28 8 15 1014.1 1011.6 0.0
25/02:30pm 38.7 33.5 0.2 9 19.9 NE 17 39 9 21 1014.5 1012.0 0.0
25/02:28pm 38.3 31.0 -0.1 9 19.7 N 28 50 15 27 1014.2 1011.7 0.0
25/02:00pm 38.8 35.5 0.3 9 20.0 N 7 17 4 9 1015.0 1012.4 0.0
25/01:30pm 38.8 33.1 0.3 9 20.0 NNE 20 33 11 18 1015.4 1012.9 0.0
25/01:00pm 38.4 33.2 0.0 9 19.8 NW 17 24 9 13 1015.8 1013.3 0.0
25/12:30pm 38.2 31.6 -0.2 9 19.7 N 24 37 13 20 1016.3 1013.8 0.0
25/12:00pm 37.8 32.2 1.0 10 19.2 N 20 32 11 17 1017.0 1014.5 0.0
25/11:30am 37.6 32.1 0.8 10 19.1 N 19 35 10 19 1017.4 1014.9 0.0
25/11:00am 36.6 30.3 1.4 11 18.3 N 24 37 13 20 1017.9 1015.4 0.0
25/10:30am 36.5 30.9 1.3 11 18.3 N 20 30 11 16 1018.3 1015.8 0.0
25/10:00am 35.7 30.2 1.9 12 17.7 NNW 20 33 11 18 1018.5 1016.0 0.0
25/09:30am 34.4 28.9 2.0 13 16.8 NNW 20 28 11 15 1018.6 1016.2 0.0
25/09:00am 33.4 28.8 1.3 13 16.4 N 15 22 8 12 1018.7 1016.3 0.0
25/08:30am 32.3 27.3 1.4 14 15.7 ENE 17 22 9 12 1018.5 1016.0 0.0
25/08:00am 30.0 26.0 3.1 18 13.9 ESE 13 17 7 9 1018.5 1016.0 0.0
25/07:30am 27.7 24.6 3.4 21 12.4 SE 9 15 5 8 1018.5 1016.0 0.0
25/07:00am 25.6 22.1 3.5 24 11.2 SE 11 15 6 8 1018.2 1015.7 0.0
25/06:30am 23.6 20.0 3.0 26 10.2 ESE 11 15 6 8 1017.7 1015.2 0.0
25/06:00am 22.0 19.2 3.2 29 9.2 SE 7 9 4 5 1017.4 1014.9 0.0
25/05:30am 21.6 18.1 3.3 30 8.9 SSW 11 15 6 8 1017.2 1014.7 0.0
25/05:00am 23.0 19.9 3.5 28 9.7 SSE 9 11 5 6 1016.9 1014.4 0.0
25/04:30am 23.4 19.5 3.4 27 9.9 S 13 17 7 9 1016.3 1013.8 0.0
25/04:00am 24.0 20.8 3.3 26 10.3 SSW 9 13 5 7 1016.0 1013.5 0.0
25/03:30am 24.7 21.2 3.4 25 10.7 S 11 13 6 7 1015.9 1013.4 0.0
25/03:00am 25.1 22.0 3.7 25 10.8 S 9 13 5 7 1015.8 1013.3 0.0
25/02:30am 25.5 22.0 3.5 24 11.1 S 11 15 6 8 1015.8 1013.3 0.0
25/02:00am 25.8 21.8 3.1 23 11.4 SSW 13 15 7 8 1015.8 1013.3 0.0
25/01:30am 26.0 23.2 3.3 23 11.4 S 7 11 4 6 1016.1 1013.6 0.0
25/01:00am 26.3 23.5 2.9 22 11.7 S 7 9 4 5 1016.4 1013.9 0.0
25/12:30am 27.3 24.5 3.1 21 12.3 S 7 9 4 5 1016.5 1014.0 0.0
25/12:00am 27.8 24.9 2.8 20 12.6 SSE 7 9 4 5 1016.8 1014.2 0.0
 
Date/Time
CST
Temp
°C
App
Temp
°C
Dew
Point
Rel
Hum
%
Delta-T
°C
Wind Press
QNH
hPa
Press
MSL
hPa
Rain
since 9 am
mm
Dir
 
Spd
km/h
Gust
km/h
Spd
kts
Gust
kts
24/11:30pm 27.5 24.2 2.6 20 12.5 S 9 13 5 7 1016.8 1014.2 0.0
24/11:00pm 28.7 25.3 2.1 18 13.4 SW 9 11 5 6 1016.9 1014.4 0.0
24/10:30pm 30.4 27.6 1.8 16 14.4 S 6 9 3 5 1017.0 1014.5 0.0
24/10:00pm 31.7 28.3 1.9 15 15.2 SSE 9 13 5 7 1017.0 1014.5 0.0
24/09:30pm 32.7 29.1 0.7 13 16.1 SE 9 13 5 7 1016.6 1014.1 0.0
24/09:00pm 34.7 29.9 -0.1 11 17.5 ESE 15 22 8 12 1016.0 1013.5 0.0
24/08:30pm 34.4 29.3 0.9 12 17.1 ESE 17 24 9 13 1015.8 1013.3 0.0
24/08:00pm 34.6 29.0 1.1 12 17.2 SE 20 30 11 16 1015.6 1013.1 0.0
24/07:30pm 34.6 28.6 1.1 12 17.2 S 22 37 12 20 1014.5 1012.0 0.0
24/07:00pm 35.5 30.9 -0.8 10 18.1 SSW 13 22 7 12 1014.0 1011.5 0.0
24/06:30pm 36.1 32.0 -3.3 8 19.0 NE 9 13 5 7 1013.6 1011.1 0.0
24/06:00pm 37.2 33.2 -2.5 8 19.5 ENE 9 15 5 8 1013.2 1010.7 0.0
24/05:30pm 37.5 31.6 -2.3 8 19.7 NE 19 20 10 11 1013.1 1010.5 0.0
24/05:00pm 37.9 30.3 -2.0 8 19.9 E 28 43 15 23 1012.9 1010.3 0.0
24/04:56pm 38.0 30.4 -1.9 8 19.9 E 28 43 15 23 1012.7 1010.1 0.0
24/04:30pm 37.8 34.2 -2.1 8 19.8 ENE 7 13 4 7 1012.9 1010.3 0.0
24/04:00pm 38.1 33.8 -1.9 8 20.0 WSW 11 19 6 10 1013.1 1010.5 0.0
24/03:30pm 38.1 34.1 -1.9 8 20.0 NW 9 15 5 8 1013.3 1010.8 0.0
24/03:00pm 38.6 32.6 -1.5 8 20.2 NNW 20 30 11 16 1013.4 1010.9 0.0
24/02:30pm 38.1 34.7 -1.9 8 20.0 SSW 6 11 3 6 1013.6 1011.1 0.0
24/02:00pm 40.0 35.5 -0.5 8 20.9 WNW 13 24 7 13 1014.0 1011.5 0.0
24/01:30pm 38.4 34.1 -1.6 8 20.1 N 11 17 6 9 1014.5 1012.0 0.0
24/01:00pm 38.8 32.8 -1.4 8 20.3 NNW 20 26 11 14 1015.0 1012.4 0.0
24/12:30pm 37.3 33.5 -0.9 9 19.3 NNE 9 17 5 9 1015.4 1012.9 0.0
24/12:00pm 37.1 33.3 -1.0 9 19.2 NNW 9 24 5 13 1015.8 1013.3 0.0
24/11:30am 37.5 32.9 -0.7 9 19.3 N 13 26 7 14 1016.2 1013.7 0.0
24/11:00am 36.5 32.4 0.0 10 18.6 N 11 19 6 10 1016.8 1014.2 0.0
24/10:30am 35.8 31.5 0.8 11 18.0 E 13 20 7 11 1017.0 1014.5 0.0
24/10:00am 34.5 31.9 1.0 12 17.1 ENE 4 9 2 5 1017.3 1014.8 0.0
24/09:30am 34.3 30.0 0.8 12 17.0 E 13 19 7 10 1017.3 1014.8 0.0
24/09:00am 32.6 28.6 2.6 15 15.6 ESE 13 19 7 10 1017.2 1014.7 0.0
24/08:30am 30.5 27.4 3.5 18 14.0 SSE 9 13 5 7 1017.2 1014.7 0.0
24/08:00am 28.9 27.5 3.7 20 13.0 CALM 0 0 0 0 1017.0 1014.5 0.0
24/07:30am 26.8 25.5 4.0 23 11.7 CALM 0 6 0 3 1016.9 1014.4 0.0
24/07:00am 23.5 20.9 3.4 27 10.0 SSW 6 9 3 5 1016.9 1014.4 0.0
24/06:30am 23.2 19.6 3.2 27 9.9 SSW 11 15 6 8 1016.2 1013.7 0.0
24/06:00am 23.3 19.8 3.3 27 9.9 S 11 15 6 8 1015.7 1013.2 0.0
24/05:30am 24.4 20.2 3.7 26 10.4 SSW 15 17 8 9 1015.5 1013.0 0.0
24/05:00am 25.2 20.9 3.2 24 11.0 SSW 15 19 8 10 1015.1 1012.6 0.0
24/04:30am 25.3 21.0 3.3 24 11.0 SSW 15 19 8 10 1014.8 1012.2 0.0
24/04:00am 24.6 21.1 3.3 25 10.6 SSW 11 15 6 8 1014.7 1012.1 0.0
24/03:30am 25.2 21.9 2.6 23 11.2 S 9 11 5 6 1014.7 1012.1 0.0
24/03:00am 26.3 21.8 2.3 21 11.9 SSW 15 19 8 10 1014.7 1012.1 0.0
24/02:30am 26.3 22.5 1.6 20 12.1 SSW 11 15 6 8 1014.7 1012.1 0.0
24/02:00am 26.6 21.7 -0.4 17 12.8 SSW 15 19 8 10 1014.8 1012.2 0.0
24/01:30am 25.0 21.5 -1.7 17 12.2 SW 7 13 4 7 1015.0 1012.4 0.0
24/01:00am 25.7 21.1 -1.2 17 12.5 SSW 13 22 7 12 1015.2 1012.7 0.0
24/12:30am 23.9 21.8 -1.1 19 11.5 CALM 0 0 0 0 1015.1 1012.6 0.0
24/12:00am 25.0 22.9 -0.9 18 12.0 CALM 0 0 0 0 1015.2 1012.7 0.0
 
Date/Time
CST
Temp
°C
App
Temp
°C
Dew
Point
Rel
Hum
%
Delta-T
°C
Wind Press
QNH
hPa
Press
MSL
hPa
Rain
since 9 am
mm
Dir
 
Spd
km/h
Gust
km/h
Spd
kts
Gust
kts
23/11:30pm 25.0 22.9 -0.9 18 12.0 CALM 0 0 0 0 1015.4 1012.9 0.0
23/11:00pm 26.3 24.1 -1.5 16 12.9 CALM 0 0 0 0 1015.8 1013.3 0.0
23/10:30pm 26.2 22.9 -1.6 16 12.8 NNW 6 7 3 4 1015.9 1013.4 0.0
23/10:00pm 26.1 23.9 -1.7 16 12.8 CALM 0 0 0 0 1015.8 1013.3 0.0
23/09:30pm 26.5 24.3 -1.3 16 12.9 CALM 0 0 0 0 1015.7 1013.2 0.0
23/09:00pm 26.8 24.5 -2.0 15 13.3 CALM 0 0 0 0 1015.5 1013.0 0.0
23/08:30pm 28.5 26.2 -2.6 13 14.4 CALM 0 0 0 0 1015.3 1012.8 0.0
23/08:00pm 28.8 25.4 -2.3 13 14.5 WNW 6 7 3 4 1015.1 1012.6 0.0
23/07:30pm 31.3 27.7 -3.9 10 16.2 NW 6 7 3 4 1014.7 1012.1 0.0
23/07:00pm 33.2 29.6 -3.9 9 17.4 NNW 6 9 3 5 1014.3 1011.8 0.0
23/06:30pm 35.4 31.2 -3.8 8 18.7 WNW 9 13 5 7 1014.1 1011.6 0.0
23/06:00pm 36.6 31.7 -3.0 8 19.3 NNW 13 24 7 13 1013.8 1011.3 0.0
23/05:30pm 37.2 32.0 -2.5 8 19.5 NW 15 22 8 12 1013.6 1011.1 0.0
23/05:00pm 37.3 31.4 -2.4 8 19.6 NNW 19 24 10 13 1013.6 1011.1 0.0
23/04:30pm 37.6 31.5 -4.0 7 20.1 NNW 19 30 10 16 1013.4 1010.9 0.0
23/04:00pm 37.9 31.8 -3.8 7 20.2 N 19 30 10 16 1013.5 1011.0 0.0
23/03:30pm 37.7 32.7 -3.9 7 20.1 NNW 13 32 7 17 1013.5 1011.0 0.0
23/03:00pm 38.5 32.3 -3.4 7 20.5 N 20 32 11 17 1013.7 1011.2 0.0
23/02:30pm 38.4 31.8 -3.4 7 20.4 NNW 22 41 12 22 1013.9 1011.4 0.0
23/02:00pm 38.1 31.1 -3.7 7 20.3 NNW 24 33 13 18 1014.2 1011.7 0.0
23/01:30pm 37.3 31.8 -2.4 8 19.6 NNE 17 19 9 10 1014.5 1012.0 0.0
23/01:00pm 37.9 31.1 -2.0 8 19.9 NW 24 39 13 21 1014.9 1012.3 0.0
23/12:30pm 37.8 31.0 -2.1 8 19.8 N 24 35 13 19 1015.4 1012.9 0.0
23/12:00pm 37.1 29.8 -2.6 8 19.5 NNW 26 39 14 21 1015.8 1013.3 0.0
23/11:30am 36.9 30.0 -2.7 8 19.4 N 24 33 13 18 1016.2 1013.7 0.0
23/11:00am 35.9 29.9 -1.9 9 18.6 N 20 30 11 16 1016.8 1014.2 0.0
23/10:30am 34.1 27.3 -1.8 10 17.5 N 24 37 13 20 1017.2 1014.7 0.0
23/10:00am 33.7 26.5 -2.1 10 17.3 N 26 39 14 21 1017.4 1014.9 0.0
23/09:30am 32.1 25.3 -2.0 11 16.3 N 24 32 13 17 1017.2 1014.7 0.0
23/09:00am 33.0 25.9 -1.4 11 16.7 NNE 26 39 14 21 1017.1 1014.6 0.0
23/08:30am 30.2 24.1 -2.3 12 15.3 NE 20 28 11 15 1017.2 1014.7 0.0
23/08:00am 29.4 24.8 -0.9 14 14.5 ENE 13 17 7 9 1017.1 1014.6 0.0
23/07:30am 26.3 21.5 0.1 18 12.5 E 15 19 8 10 1017.1 1014.6 0.0

Other Formats:

Comma delimited format used in spreadsheet applications
http://www.bom.gov.au/fwo/IDD60801/IDD60801.94462.axf

JavaScript Object Notation format (JSON) in row-major order
http://www.bom.gov.au/fwo/IDD60801/IDD60801.94462.json